Regional Weather Roundup
Issued by NWS

Home | Current Version | Previous Version | Text Only | Print | Product List | Glossary Off
Versions: 1 2 3 4 5 6 7 8 9 10 11 12 13 14 15 16 17 18 19 20 21 22 23 24 25 26 27 28 29 30 31 32 33 34 35 36 37 38 39 40 41 42 43 44 45 46 47 48 49 50

000
ASUS43 KFSD 201102
RWRSD

WEATHER ROUNDUP FOR SOUTH DAKOTA
NATIONAL WEATHER SERVICE SIOUX FALLS SD
600 AM CDT WED AUG 20 2014

NOTE: "FAIR" INDICATES FEW OR NO CLOUDS BELOW 12,000 FEET WITH NO
SIGNIFICANT WEATHER AND/OR OBSTRUCTIONS TO VISIBILITY.


SDZ001>005-009-010-012>017-201200-
NORTHWEST AND NORTH CENTRAL SOUTH DAKOTA

CITY           SKY/WX    TMP DP  RH WIND       PRES   REMARKS
BUFFALO          N/A     73  57  57 S16G31    29.62F
FAITH            N/A     69  63  81 SE14      29.69F
MOBRIDGE       PTCLDY    64  63  96 E7        29.67F
$$

SDZ012>016-024>037-041>051-057-063-072>074-201200-
SOUTHWEST AND SOUTH CENTRAL SOUTH DAKOTA

CITY           SKY/WX    TMP DP  RH WIND       PRES   REMARKS
RAPID CTY ARPT CLOUDY    66  56  70 CALM      29.72R
PIERRE         PTCLDY    68  60  75 SE9       29.68F
CUSTER         CLOUDY    65  48  54 W8        29.88R
ELLSWORTH AFB  CLOUDY    69  56  63 S7        29.72R
PHILIP         MOCLDY    70  65  84 SE9       29.68F
PINE RIDGE     CLOUDY    67  57  70 S6        29.76R
WINNER         FAIR      69  64  84 SE13      29.74R
$$

SDZ004>011-016>023-039-040-201200-
NORTHEAST SOUTH DAKOTA

CITY           SKY/WX    TMP DP  RH WIND       PRES   REMARKS
ABERDEEN       PTCLDY    61  61 100 SE5       29.75R
WATERTOWN      CLOUDY    65  60  84 SE3       29.79S
SISSETON         N/A     59  59 100 S3        29.78R
$$

SDZ017-020-022-023-036>040-048>070-201200-
SOUTHEAST SOUTH DAKOTA

CITY           SKY/WX    TMP DP  RH WIND       PRES   REMARKS
SIOUX FALLS    TSTM      70  64  81 SE9G20    29.80F
HURON          CLOUDY    68  64  87 E15       29.72F
CHAMBERLAIN    PTCLDY    65  63  91 E10       29.71F
MITCHELL       CLOUDY    68  66  93 N12       29.77F
YANKTON        CLOUDY    68  66  94 SE7       29.76R
$$

ABBREVIATIONS USED IN REMARKS
   TC - TEMPERATURE IN CELSIUS
  WCI - WIND CHILL INDEX
   HX - HEAT INDEX
  VSB - VISIBILITY



USA.gov is the U.S. government's official web portal to all federal, state and local government web resources and services.